Weather History for Prescott, AZ

Change the Weather History Date:

Wednesday, November 13, 2013

  Actual Average Record
Temperature  
Mean Temperature 56 °F 47 °F  
Max Temperature 71 °F 62 °F 76 °F (1999)
Min Temperature 41 °F 32 °F 19 °F (1985)
Degree Days  
Heating Degree Days 9    
Month to date heating degree days 180  
Since 1 July heating degree days 566  
Cooling Degree Days 0    
Month to date cooling degree days 0  
Year to date cooling degree days 1127  
Growing Degree Days 6 (Base 50)    
Moisture  
Dew Point 27 °F    
Average Humidity 37    
Maximum Humidity 58    
Minimum Humidity 18    
Precipitation  
Precipitation 0.00 in 0.02 in 0.28 in (1968)
Month to date precipitation 0.00 0.37  
Year to date precipitation 10.93 12.46  
Sea Level Pressure  
Sea Level Pressure 30.09 in    
Wind  
Wind Speed 3 mph (SW)    
Max Wind Speed 9 mph    
Max Gust Speed 13 mph    
Visibility 10 miles    
Events      
T = Trace of Precipitation, MM = Missing Value Source: NWS Daily Summary

Daily Weather History Graph

Daily Weather History Graph

Search for Another Location

Airport:

Trip Planner

Search our weather history database for the weather conditions in past years. The results will help you decide how hot, cold, wet, or windy it might be!

Date:

Astronomy

Nov. 13, 2013 Rise Set
Actual Time 7:01 AM MST 5:25 PM MST
Civil Twilight 6:35 AM MST 5:52 PM MST
Nautical Twilight 6:04 AM MST 6:22 PM MST
Astronomical Twilight 5:34 AM MST 6:52 PM MST
Moon 3:07 PM MST (11/13) 3:07 AM MST (11/13)
Length of Visible Light 11h 17m
Length of Day
10h 24m
Waxing Gibbous, 85% of the Moon is Illuminated
Nov 13
Waxing Gibbous
Nov 17
Full
Nov 25
Last Quarter
Dec 2
New
Dec 9
First Quarter

Hourly Weather History & Observations

Time (MST) Temp. Windchill Dew Point Humidity Pressure Visibility Wind Dir Wind Speed Gust Speed Precip Events Conditions
12:53 AM 50.0 °F - 23.0 °F 35% 30.18 in 10.0 mi NW 3.5 mph - N/A   Clear
1:53 AM 50.0 °F - 19.9 °F 31% 30.17 in 10.0 mi Calm Calm - N/A   Clear
2:53 AM 46.9 °F - 21.9 °F 37% 30.16 in 10.0 mi Calm Calm - N/A   Clear
3:53 AM 46.0 °F - 23.0 °F 40% 30.15 in 10.0 mi Calm Calm - N/A   Clear
4:53 AM 44.1 °F - 26.1 °F 49% 30.15 in 10.0 mi Calm Calm - N/A   Clear
5:53 AM 52.0 °F - 30.9 °F 45% 30.15 in 10.0 mi SSE 6.9 mph - N/A   Clear
6:53 AM 42.1 °F 40.2 °F 26.1 °F 53% 30.19 in 10.0 mi WSW 3.5 mph - N/A   Clear
7:53 AM 45.0 °F - 27.0 °F 49% 30.20 in 10.0 mi Calm Calm - N/A   Clear
8:53 AM 52.0 °F - 24.1 °F 34% 30.20 in 10.0 mi Calm Calm - N/A   Clear
9:53 AM 59.0 °F - 28.0 °F 31% 30.17 in 10.0 mi NNE 3.5 mph - N/A   Clear
10:53 AM 63.0 °F - 28.9 °F 28% 30.14 in 10.0 mi Calm Calm - N/A   Clear
11:53 AM 66.0 °F - 32.0 °F 28% 30.09 in 10.0 mi Variable 4.6 mph - N/A   Clear
12:53 PM 68.0 °F - 32.0 °F 26% 30.05 in 10.0 mi South 3.5 mph - N/A   Clear
1:53 PM 69.1 °F - 30.9 °F 24% 30.02 in 10.0 mi Calm Calm - N/A   Clear
2:53 PM 71.1 °F - 28.0 °F 20% 30.02 in 10.0 mi NNW 6.9 mph - N/A   Clear
3:53 PM 70.0 °F - 26.1 °F 19% 30.01 in 10.0 mi North 5.8 mph - N/A   Clear
4:53 PM 69.1 °F - 25.0 °F 19% 30.00 in 10.0 mi Calm Calm - N/A   Clear
5:53 PM 62.1 °F - 26.1 °F 25% 30.00 in 10.0 mi Calm Calm - N/A   Clear
6:53 PM 54.0 °F - 27.0 °F 35% 30.05 in 9.0 mi South 6.9 mph - N/A   Clear
7:53 PM 53.1 °F - 28.9 °F 40% 30.05 in 10.0 mi South 8.1 mph - N/A   Clear
8:53 PM 52.0 °F - 30.0 °F 43% 30.05 in 10.0 mi Calm Calm - N/A   Clear
9:53 PM 46.9 °F - 32.0 °F 56% 30.04 in 6.0 mi SSW 3.5 mph - N/A   Haze
10:53 PM 46.0 °F 41.9 °F 32.0 °F 58% 30.02 in 5.0 mi South 8.1 mph - N/A   Haze
11:53 PM 46.0 °F 43.9 °F 30.9 °F 56% 30.01 in 9.0 mi SSW 4.6 mph - N/A   Partly Cloudy